カタログに戻る

PRAETORIAN SDA_518

運用中PO
NORAD 100076·PAYLOAD·🇺🇸 United States

打ち上げ Jul 16, 2026 から Vandenberg Space Force Base

Loading…

次のパス (今後24時間)

TLE

最新Source: Space-Track

元期: Sep 14, 2026, 10:44 UTC

1 A0076U 26163T   26257.44786836  .00000105  00000-0  79800-4 0  9993
2 A0076  81.4773 255.4228 0017743  57.2340 303.0525 13.86191113  8264

AllMySatでPRAETORIAN SDA_518をリアルタイム追跡

Download on the App Store